This is the latest recevied weather packets stored in our database for station/object KE8GJZ-1. If no packets are shown the sender has not sent any weather packets the latest 10 day(s).
| Time | Temp. | Humidity | Pressure | Rain* | Wind** | Luminosity | Snow |
|---|---|---|---|---|---|---|---|
| 1777360069 | 14.44° C | 99% | 1002.8 hPa | 0 mm | - | 0 W/m² | - |
| 1777359765 | 14.44° C | 98% | 1002.8 hPa | 0 mm | - | 0 W/m² | - |
| 1777359463 | 14.44° C | 98% | 1003 hPa | 0 mm | - | 0 W/m² | - |
| 1777359159 | 14.44° C | 98% | 1002.9 hPa | 0 mm | - | 0 W/m² | - |
| 1777358857 | 14.44° C | 98% | 1002.9 hPa | 0 mm | - | 0 W/m² | - |
| 1777358554 | 14.44° C | 98% | 1003.1 hPa | 0 mm | - | 0 W/m² | - |
| 1777358252 | 14.44° C | 98% | 1002.9 hPa | 0 mm | - | 0 W/m² | - |
| 1777357950 | 14.44° C | 98% | 1003.1 hPa | 0 mm | - | 0 W/m² | - |
| 1777357647 | 14.44° C | 98% | 1002.9 hPa | 0 mm | - | 0 W/m² | - |
| 1777357343 | 15° C | 98% | 1002.8 hPa | 0 mm | - | 0 W/m² | - |
| 1777357041 | 15° C | 98% | 1002.9 hPa | 0 mm | - | 0 W/m² | - |
| 1777356737 | 15° C | 98% | 1002.7 hPa | 0 mm | - | 0 W/m² | - |
| 1777356435 | 14.44° C | 98% | 1002.3 hPa | 0 mm | - | 0 W/m² | - |
| 1777356131 | 14.44° C | 98% | 1002.4 hPa | 1.78 mm | - | 0 W/m² | - |
| 1777355829 | 15° C | 98% | 1002 hPa | 1.78 mm | - | 0 W/m² | - |
| 1777355525 | 15° C | 98% | 1002.6 hPa | 0 mm | - | 0 W/m² | - |
| 1777355222 | 15° C | 98% | 1003.1 hPa | 0 mm | - | 0 W/m² | - |
| 1777354917 | 15° C | 98% | 1003.1 hPa | 0 mm | - | 0 W/m² | - |
| 1777354614 | 15° C | 99% | 1002.6 hPa | 0 mm | - | 0 W/m² | - |
| 1777354310 | 15° C | 99% | 1003.5 hPa | 0 mm | - | 0 W/m² | - |
| 1777354007 | 15° C | 99% | 1003.4 hPa | 1.27 mm | - | 0 W/m² | - |
| 1777353703 | 15° C | 99% | 1003.5 hPa | 3.05 mm | - | 0 W/m² | - |
| 1777353402 | 15° C | 99% | 1003.6 hPa | 3.05 mm | - | 0 W/m² | - |
| 1777353099 | 15° C | 99% | 1004.5 hPa | 3.05 mm | - | 0 W/m² | - |
| 1777352798 | 15° C | 98% | 1005.1 hPa | 4.83 mm | - | 0 W/m² | - |
* Rain latest hour (hover to see other rain measurements)
** Current wind speed in m/s (hover to see current wind gust speed)